EW8567 Weather Reports


Display with metric or nautical units.
time (UTC)temp
F
wind
direction
speed
MPH
gust
MPH
rain 1hr
in
rain 24hr
in
rain mn
in
humidity
%
barometer
mb
20190121184008 11 197 3.0 7.0 0.00 0.00 0.00 71 1015.0
20190121183505 11 196 3.0 7.0 0.00 0.00 0.00 71 1015.2
20190121183007 10 197 3.0 7.0 0.00 0.00 0.00 71 1015.2
20190121182504 10 182 2.0 5.0 0.00 0.00 0.00 71 1015.0
20190121182008 10 177 2.0 5.0 0.00 0.00 0.00 71 1014.9
20190121181504 10 169 2.0 5.0 0.00 0.00 0.00 71 1015.2
20190121181007 9 151 1.0 5.0 0.00 0.00 0.00 71 1015.2
20190121180504 9 150 1.0 3.0 0.00 0.00 0.00 71 1015.3
20190121180008 10 164 1.0 4.0 0.00 0.00 0.00 71 1015.2
20190121175505 10 161 2.0 5.0 0.00 0.00 0.00 71 1015.2
20190121175007 10 168 3.0 5.0 0.00 0.00 0.00 71 1015.2
20190121174505 10 184 3.0 5.0 0.00 0.00 0.00 70 1015.2
20190121174007 10 186 2.0 5.0 0.00 0.00 0.00 71 1015.3
20190121173504 10 182 2.0 5.0 0.00 0.00 0.00 70 1015.2
20190121173008 9 181 2.0 5.0 0.00 0.00 0.00 70 1015.2
20190121172505 10 183 3.0 7.0 0.00 0.00 0.00 70 1015.2
20190121172008 10 184 3.0 7.0 0.00 0.00 0.00 70 1015.2
20190121171505 9 189 2.0 6.0 0.00 0.00 0.00 70 1015.3
20190121171008 9 183 2.0 5.0 0.00 0.00 0.00 70 1015.3
20190121170504 9 171 2.0 5.0 0.00 0.00 0.00 70 1015.3
20190121170008 9 177 2.0 4.0 0.00 0.00 0.00 69 1015.3
20190121165505 9 175 2.0 4.0 0.00 0.00 0.00 69 1015.5
20190121165008 9 175 1.0 4.0 0.00 0.00 0.00 69 1015.3
20190121164506 10 181 1.0 4.0 0.00 0.00 0.00 68 1015.3
20190121164007 10 172 1.0 4.0 0.00 0.00 0.00 68 1015.3
20190121163505 10 160 1.0 4.0 0.00 0.00 0.00 68 1015.4
20190121163007 10 140 1.0 4.0 0.00 0.00 0.00 68 1015.5
20190121162504 11 164 2.0 4.0 0.00 0.00 0.00 68 1015.4
20190121162007 11 196 2.0 5.0 0.00 0.00 0.00 68 1015.3
20190121161504 11 200 2.0 5.0 0.00 0.00 0.00 68 1015.3
20190121161006 11 198 2.0 5.0 0.00 0.00 0.00 68 1015.5
20190121160504 11 200 1.0 8.0 0.00 0.00 0.00 68 1015.4
20190121160008 11 210 2.0 8.0 0.00 0.00 0.00 68 1015.5
20190121155504 11 209 2.0 8.0 0.00 0.00 0.00 67 1015.4
20190121155009 11 201 3.0 7.0 0.00 0.00 0.00 67 1015.6
20190121154505 11 198 3.0 7.0 0.00 0.00 0.00 67 1015.7
20190121154008 12 195 3.0 9.0 0.00 0.00 0.00 67 1015.8
20190121153505 12 187 4.0 9.0 0.00 0.00 0.00 67 1015.8
20190121153007 12 187 4.0 9.0 0.00 0.00 0.00 68 1015.9
20190121152504 12 187 4.0 8.0 0.00 0.00 0.00 68 1015.9
20190121152007 12 177 4.0 8.0 0.00 0.00 0.00 67 1015.9
20190121151506 12 174 3.0 8.0 0.00 0.00 0.00 67 1015.8
20190121151007 12 187 2.0 7.0 0.00 0.00 0.00 67 1015.9
20190121150503 12 216 2.0 5.0 0.00 0.00 0.00 67 1016.2
20190121150007 12 202 2.0 5.0 0.00 0.00 0.00 67 1016.2
20190121145504 12 186 2.0 7.0 0.00 0.00 0.00 67 1016.2
20190121145008 12 182 2.0 7.0 0.00 0.00 0.00 67 1016.2
20190121144505 12 191 2.0 5.0 0.00 0.00 0.00 67 1016.1
20190121144007 12 200 2.0 6.0 0.00 0.00 0.00 67 1016.3
20190121143504 12 194 2.0 6.0 0.00 0.00 0.00 67 1016.4
20190121143007 12 193 2.0 6.0 0.00 0.00 0.00 67 1016.4
20190121142505 12 199 2.0 6.0 0.00 0.00 0.00 67 1016.4
20190121142008 12 203 3.0 7.0 0.00 0.00 0.00 66 1016.5
20190121141505 12 200 3.0 7.0 0.00 0.00 0.00 66 1016.5
20190121141008 12 191 3.0 7.0 0.00 0.00 0.00 66 1016.6
20190121140505 12 185 3.0 8.0 0.00 0.00 0.00 66 1016.7
20190121140009 12 178 4.0 11.0 0.00 0.00 0.00 66 1016.6
20190121135505 12 181 5.0 11.0 0.00 0.00 0.00 66 1016.7
20190121135008 12 190 4.0 11.0 0.00 0.00 0.00 66 1016.7
20190121134505 12 200 3.0 8.0 0.00 0.00 0.00 66 1016.8
20190121134007 12 214 2.0 7.0 0.00 0.00 0.00 65 1016.8
20190121133504 12 229 2.0 8.0 0.00 0.00 0.00 65 1016.8
20190121133007 12 215 3.0 8.0 0.00 0.00 0.00 65 1016.9
20190121132504 12 214 3.0 8.0 0.00 0.00 0.00 65 1016.9
20190121132007 12 229 3.0 6.0 0.00 0.00 0.00 65 1017.0
20190121131504 12 212 3.0 6.0 0.00 0.00 0.00 64 1017.0
20190121131008 12 195 2.0 6.0 0.00 0.00 0.00 64 1017.1
20190121130505 12 193 3.0 6.0 0.00 0.00 0.00 64 1017.1
20190121130009 12 200 3.0 6.0 0.00 0.00 0.00 64 1017.2
20190121125504 12 193 2.0 6.0 0.00 0.00 0.00 64 1017.3
20190121125007 12 182 2.0 6.0 0.00 0.00 0.00 64 1017.3
20190121124505 13 202 1.0 4.0 0.00 0.00 0.00 63 1017.3
20190121124007 13 196 2.0 6.0 0.00 0.00 0.00 63 1017.3
20190121123505 13 177 2.0 6.0 0.00 0.00 0.00 63 1017.2
20190121123008 13 175 1.0 5.0 0.00 0.00 0.00 63 1017.5
20190121122504 13 147 1.0 4.0 0.00 0.00 0.00 62 1017.3
20190121122007 13 130 1.0 4.0 0.00 0.00 0.00 62 1017.3
20190121121505 14 150 1.0 4.0 0.00 0.00 0.00 61 1017.4
20190121121006 14 163 1.0 4.0 0.00 0.00 0.00 61 1017.3
20190121120505 15 170 1.0 4.0 0.00 0.00 0.00 60 1017.5
20190121120009 15 201 0.0 2.0 0.00 0.00 0.00 60 1017.6
20190121115504 15 211 0.0 2.0 0.00 0.00 0.00 60 1017.6
20190121115009 16 199 1.0 4.0 0.00 0.00 0.00 60 1017.8
20190121114506 16 173 1.0 4.0 0.00 0.00 0.00 59 1017.6
20190121114007 16 170 2.0 6.0 0.00 0.00 0.00 59 1017.6
20190121113504 16 194 4.0 9.0 0.00 0.00 0.00 59 1017.6
20190121113007 17 183 5.0 11.0 0.00 0.00 0.00 59 1017.6
20190121112505 17 172 4.0 11.0 0.00 0.00 0.00 59 1017.6
20190121112007 17 188 4.0 10.0 0.00 0.00 0.00 58 1017.7
20190121111504 17 195 5.0 10.0 0.00 0.00 0.00 58 1017.7
20190121111007 18 192 4.0 11.0 0.00 0.00 0.00 58 1017.6
20190121110505 18 183 4.0 11.0 0.00 0.00 0.00 58 1017.4
20190121110008 18 184 4.0 9.0 0.00 0.00 0.00 59 1017.5
20190121105504 18 184 4.0 9.0 0.00 0.00 0.00 58 1017.5
20190121105008 18 196 4.0 9.0 0.00 0.00 0.00 59 1017.7
20190121104504 19 195 4.0 9.0 0.00 0.00 0.00 59 1017.5
20190121104007 19 187 4.0 12.0 0.00 0.00 0.00 59 1017.6
20190121103503 19 194 5.0 12.0 0.00 0.00 0.00 59 1017.6
20190121103008 19 185 5.0 10.0 0.00 0.00 0.00 59 1017.7
20190121102504 19 182 6.0 11.0 0.00 0.00 0.00 59 1017.5
20190121102007 19 197 5.0 11.0 0.00 0.00 0.00 59 1017.4
20190121101504 19 204 5.0 11.0 0.00 0.00 0.00 60 1017.4
20190121101007 19 205 6.0 11.0 0.00 0.00 0.00 59 1017.3
20190121100504 19 213 5.0 11.0 0.00 0.00 0.00 60 1017.4
20190121100007 19 209 5.0 8.0 0.00 0.00 0.00 60 1017.5
20190121095504 19 209 5.0 11.0 0.00 0.00 0.00 60 1017.3
20190121095007 18 192 6.0 11.0 0.00 0.00 0.00 60 1017.5
20190121094504 18 173 6.0 11.0 0.00 0.00 0.00 60 1017.4
20190121094007 18 178 6.0 11.0 0.00 0.00 0.00 60 1017.5
20190121093503 18 181 7.0 13.0 0.00 0.00 0.00 60 1017.5
20190121093008 18 189 6.0 13.0 0.00 0.00 0.00 61 1017.6
20190121092505 18 198 5.0 11.0 0.00 0.00 0.00 61 1017.6
20190121092009 18 202 6.0 11.0 0.00 0.00 0.00 61 1017.8
20190121091505 18 209 6.0 11.0 0.00 0.00 0.00 61 1017.7
20190121091008 18 213 4.0 10.0 0.00 0.00 0.00 61 1017.7
20190121090505 18 207 4.0 8.0 0.00 0.00 0.00 62 1017.7
20190121090007 18 216 4.0 8.0 0.00 0.00 0.00 62 1017.7
20190121085504 18 230 4.0 8.0 0.00 0.00 0.00 63 1017.7
20190121085007 18 226 4.0 9.0 0.00 0.00 0.00 62 1017.7
20190121084505 18 225 4.0 9.0 0.00 0.00 0.00 62 1017.6
20190121084007 18 216 5.0 9.0 0.00 0.00 0.00 62 1017.7
20190121083505 18 214 5.0 9.0 0.00 0.00 0.00 62 1017.6
20190121083007 18 234 5.0 8.0 0.00 0.00 0.00 63 1017.6
20190121082505 18 229 4.0 8.0 0.00 0.00 0.00 63 1017.4
20190121082007 17 224 5.0 10.0 0.00 0.00 0.00 63 1017.4
20190121081504 17 226 5.0 10.0 0.00 0.00 0.00 63 1017.6
20190121081007 17 231 4.0 8.0 0.00 0.00 0.00 64 1017.5
20190121080505 17 230 4.0 10.0 0.00 0.00 0.00 65 1017.6
20190121080009 17 225 4.0 10.0 0.00 0.00 0.00 66 1017.3
20190121075504 17 237 4.0 8.0 0.00 0.00 0.00 67 1017.3
20190121075007 17 245 4.0 8.0 0.00 0.00 0.00 67 1017.3
20190121074505 17 247 4.0 8.0 0.00 0.00 0.00 67 1017.1
20190121074007 16 249 4.0 8.0 0.00 0.00 0.00 68 1017.3
20190121073504 16 241 4.0 8.0 0.00 0.00 0.00 69 1017.1
20190121073008 16 248 4.0 8.0 0.00 0.00 0.00 69 1017.0
20190121072505 16 262 4.0 9.0 0.00 0.00 0.00 70 1017.0
20190121072008 16 265 5.0 9.0 0.00 0.00 0.00 71 1017.0
20190121071504 16 257 4.0 9.0 0.00 0.00 0.00 71 1016.9
20190121071007 15 232 3.0 9.0 0.00 0.00 0.00 72 1016.9
20190121070504 15 234 4.0 8.0 0.00 0.00 0.00 73 1017.0
20190121070008 14 248 4.0 8.0 0.00 0.00 0.00 75 1017.0
20190121065505 14 254 3.0 7.0 0.00 0.00 0.00 75 1016.9
20190121065008 13 263 3.0 6.0 0.00 0.00 0.00 75 1016.8
20190121064504 13 273 3.0 6.0 0.00 0.00 0.00 75 1016.8
20190121064007 12 273 2.0 4.0 0.00 0.00 0.00 76 1016.7
20190121063506 12 269 2.0 6.0 0.00 0.00 0.00 76 1016.8
20190121063008 11 265 3.0 8.0 0.00 0.00 0.00 76 1016.6
20190121062505 11 271 3.0 8.0 0.00 0.00 0.00 77 1016.7
20190121062007 10 275 4.0 8.0 0.00 0.00 0.00 77 1016.7
20190121061505 10 281 4.0 7.0 0.00 0.00 0.00 77 1016.8
20190121061007 9 276 3.0 7.0 0.00 0.00 0.00 77 1016.7
20190121060504 9 274 4.0 9.0 0.00 0.00 0.00 77 1016.7
20190121060007 9 277 5.0 9.0 0.00 0.00 0.00 77 1016.5
20190121055505 9 276 5.0 9.0 0.00 0.00 0.00 77 1016.6
20190121055008 8 272 5.0 8.0 0.00 0.00 0.00 77 1016.4
20190121054504 8 270 5.0 11.0 0.00 0.00 0.00 78 1016.3
20190121054007 8 275 5.0 11.0 0.00 0.00 0.00 78 1016.3
20190121053505 8 285 5.0 9.0 0.00 0.00 0.00 78 1016.4
20190121053007 7 284 6.0 10.0 0.00 0.00 0.00 78 1016.4
20190121052504 7 287 6.0 10.0 0.00 0.00 0.00 78 1016.3
20190121052007 7 288 6.0 9.0 0.00 0.00 0.00 78 1016.4
20190121051505 7 289 5.0 9.0 0.00 0.00 0.00 78 1016.3
20190121051007 7 295 4.0 8.0 0.00 0.00 0.00 78 1016.3
20190121050505 6 284 4.0 8.0 0.00 0.00 0.00 77 1016.3
20190121050008 6 282 5.0 8.0 0.00 0.00 0.00 77 1016.4
20190121045505 6 274 5.0 8.0 0.00 0.00 0.00 76 1016.4
20190121045008 5 270 3.0 7.0 0.00 0.00 0.00 76 1016.2
20190121044505 5 287 3.0 5.0 0.00 0.00 0.00 75 1016.3
20190121044007 5 294 3.0 5.0 0.00 0.00 0.00 75 1016.2
20190121043505 6 278 3.0 4.0 0.00 0.00 0.00 74 1016.1
20190121043007 6 290 2.0 4.0 0.00 0.00 0.00 74 1015.9
20190121042504 6 308 2.0 3.0 0.00 0.00 0.00 74 1016.1
20190121042007 7 291 1.0 3.0 0.00 0.00 0.00 74 1016.0
20190121041504 7 270 1.0 2.0 0.00 0.00 0.00 74 1016.0
20190121041007 8 269 1.0 2.0 0.00 0.00 0.00 74 1015.8
20190121040504 8 275 1.0 3.0 0.00 0.00 0.00 73 1015.8
20190121040007 9 302 1.0 3.0 0.00 0.00 0.00 73 1015.7
20190121035505 9 306 2.0 4.0 0.00 0.00 0.00 73 1015.7
20190121035007 9 277 2.0 4.0 0.00 0.00 0.00 73 1015.6
20190121034504 10 269 3.0 8.0 0.00 0.00 0.00 73 1015.7
20190121034007 10 275 4.0 8.0 0.00 0.00 0.00 73 1015.4
20190121033504 10 272 6.0 10.0 0.00 0.00 0.00 73 1015.4
20190121033008 10 273 6.0 10.0 0.00 0.00 0.00 74 1015.3
20190121032504 10 281 7.0 11.0 0.00 0.00 0.00 73 1015.2
20190121032007 10 278 7.0 13.0 0.00 0.00 0.00 73 1015.1
20190121031504 10 271 7.0 13.0 0.00 0.00 0.00 73 1015.0
20190121031007 10 280 7.0 11.0 0.00 0.00 0.00 73 1015.0
20190121030505 11 281 7.0 12.0 0.00 0.00 0.00 73 1014.8
20190121030008 11 277 7.0 12.0 0.00 0.00 0.00 73 1014.8
20190121025503 11 282 8.0 15.0 0.00 0.00 0.00 73 1014.7
20190121025008 11 269 8.0 15.0 0.00 0.00 0.00 73 1014.6
20190121024504 11 259 7.0 12.0 0.00 0.00 0.00 73 1014.6
20190121024007 11 275 6.0 12.0 0.00 0.00 0.00 72 1014.4
20190121023505 12 276 7.0 12.0 0.00 0.00 0.00 72 1014.5
20190121023008 12 281 7.0 12.0 0.00 0.00 0.00 72 1014.3
20190121022505 12 283 8.0 14.0 0.00 0.00 0.00 72 1014.1
20190121022008 12 277 8.0 14.0 0.00 0.00 0.00 72 1014.1
20190121021505 13 280 8.0 14.0 0.00 0.00 0.00 72 1014.2
20190121021007 13 283 9.0 15.0 0.00 0.00 0.00 72 1014.0
20190121020504 13 296 9.0 17.0 0.00 0.00 0.00 72 1013.8
20190121020007 13 307 8.0 17.0 0.00 0.00 0.00 73 1013.9
20190121015504 13 306 8.0 18.0 0.00 0.00 0.00 73 1013.6
20190121015007 13 299 9.0 18.0 0.00 0.00 0.00 74 1013.4
20190121014505 13 298 8.0 16.0 0.00 0.00 0.00 74 1013.5
20190121014007 12 311 7.0 14.0 0.00 0.00 0.00 74 1013.4
20190121013504 11 305 7.0 13.0 0.00 0.00 0.00 74 1013.4
20190121013007 11 297 5.0 12.0 0.00 0.00 0.00 73 1013.5
20190121012505 11 285 3.0 10.0 0.00 0.00 0.00 72 1013.4
20190121012007 11 265 2.0 5.0 0.00 0.00 0.00 71 1013.5
20190121011504 12 268 2.0 5.0 0.00 0.00 0.00 71 1013.5
20190121011007 12 270 2.0 4.0 0.00 0.00 0.00 72 1013.4
20190121010505 13 273 3.0 7.0 0.00 0.00 0.00 72 1013.3
20190121010008 13 263 4.0 7.0 0.00 0.00 0.00 72 1013.1
20190121005504 13 272 4.0 8.0 0.00 0.00 0.00 72 1013.3
20190121005009 14 286 4.0 8.0 0.00 0.00 0.00 72 1013.2
20190121004505 14 279 5.0 9.0 0.00 0.00 0.00 72 1013.1
20190121004007 14 278 6.0 9.0 0.00 0.00 0.00 72 1013.0
20190121003505 14 277 5.0 9.0 0.00 0.00 0.00 72 1013.1
20190121003008 14 295 5.0 13.0 0.00 0.00 0.00 73 1013.2
20190121002504 14 306 6.0 13.0 0.00 0.00 0.00 73 1013.1
20190121002007 14 298 5.0 11.0 0.00 0.00 0.00 74 1013.0
20190121001505 14 285 6.0 13.0 0.00 0.00 0.00 73 1013.0
20190121001008 15 277 7.0 13.0 0.00 0.00 0.00 74 1012.8
20190121000504 15 288 8.0 14.0 0.00 0.00 0.00 74 1012.6
20190121000007 15 290 7.0 14.0 0.00 0.00 0.00 75 1012.6
20190120235505 15 283 6.0 13.0 0.00 0.00 0.00 75 1012.5
20190120235007 15 292 5.0 9.0 0.00 0.00 0.00 75 1012.4
20190120234505 14 307 5.0 8.0 0.00 0.00 0.00 75 1012.3
20190120234007 14 312 4.0 9.0 0.00 0.00 0.00 75 1012.3
20190120233504 14 293 4.0 9.0 0.00 0.00 0.00 75 1012.1
20190120233008 14 292 5.0 11.0 0.00 0.00 0.00 75 1012.0
20190120232504 14 298 6.0 11.0 0.00 0.00 0.00 75 1011.9
20190120232007 14 291 6.0 11.0 0.00 0.00 0.00 75 1011.9
20190120231506 14 286 6.0 11.0 0.00 0.00 0.00 75 1011.8
20190120231008 14 291 5.0 11.0 0.00 0.00 0.00 75 1011.6
20190120230505 14 295 5.0 11.0 0.00 0.00 0.00 74 1011.6
20190120230008 14 296 4.0 8.0 0.00 0.00 0.00 74 1011.6
20190120225504 14 298 4.0 6.0 0.00 0.00 0.00 74 1011.6
20190120225007 15 303 4.0 9.0 0.00 0.00 0.00 74 1011.6
20190120224504 15 296 5.0 11.0 0.00 0.00 0.00 74 1011.3
20190120224007 15 301 6.0 11.0 0.00 0.00 0.00 75 1011.4
20190120223504 15 308 7.0 13.0 0.00 0.00 0.00 75 1011.3
20190120223007 15 295 7.0 13.0 0.00 0.00 0.00 75 1011.2
20190120222505 16 292 6.0 13.0 0.00 0.00 0.00 75 1011.2
20190120222007 16 300 6.0 11.0 0.00 0.00 0.00 75 1011.0
20190120221503 16 300 6.0 11.0 0.00 0.00 0.00 74 1010.8
20190120221007 16 301 8.0 15.0 0.00 0.00 0.00 75 1010.9
20190120220504 16 301 9.0 15.0 0.00 0.00 0.00 75 1010.8
20190120220007 16 306 9.0 13.0 0.00 0.00 0.00 74 1010.5
20190120215505 16 305 8.0 15.0 0.00 0.00 0.00 74 1010.6
20190120215007 16 291 8.0 15.0 0.00 0.00 0.00 74 1010.5
20190120214504 17 295 7.0 15.0 0.00 0.00 0.00 74 1010.4
20190120214008 17 305 6.0 13.0 0.00 0.00 0.00 74 1010.3
20190120213505 17 301 6.0 11.0 0.00 0.00 0.00 74 1010.3
20190120213008 17 302 7.0 12.0 0.00 0.00 0.00 73 1010.1
20190120212504 17 306 8.0 15.0 0.00 0.00 0.00 73 1009.9
20190120212008 18 309 9.0 15.0 0.00 0.00 0.00 73 1009.9
20190120211505 18 309 9.0 18.0 0.00 0.00 0.00 73 1009.8
20190120211007 18 305 9.0 18.0 0.00 0.00 0.00 73 1009.7
20190120210505 18 302 9.0 18.0 0.00 0.00 0.00 73 1009.6
20190120210008 18 293 9.0 17.0 0.00 0.00 0.00 74 1009.7
20190120205505 18 291 7.0 17.0 0.00 0.00 0.00 74 1009.6
20190120205008 18 305 7.0 12.0 0.00 0.00 0.00 74 1009.5
20190120204505 18 307 8.0 15.0 0.00 0.00 0.00 74 1009.5
20190120204006 18 302 9.0 15.0 0.00 0.00 0.00 74 1009.3
20190120203504 19 302 9.0 15.0 0.00 0.00 0.00 74 1009.3
20190120203007 19 298 8.0 15.0 0.00 0.00 0.00 75 1009.2
20190120202505 19 294 9.0 17.0 0.00 0.00 0.00 75 1009.2
20190120202007 19 303 9.0 17.0 0.00 0.00 0.00 75 1009.1
20190120201505 19 311 9.0 15.0 0.00 0.00 0.00 75 1009.0
20190120201007 19 310 8.0 15.0 0.00 0.00 0.00 75 1008.9
20190120200504 19 307 9.0 15.0 0.00 0.00 0.00 75 1008.9
20190120200010 20 303 9.0 15.0 0.00 0.00 0.00 76 1008.8
20190120195504 20 297 9.0 15.0 0.00 0.00 0.00 76 1008.7
20190120195008 20 306 9.0 17.0 0.00 0.00 0.00 77 1008.5
20190120194505 20 310 9.0 17.0 0.00 0.00 0.00 77 1008.3
20190120194007 20 302 9.0 17.0 0.00 0.00 0.00 78 1008.2
20190120193505 20 307 10.0 17.0 0.00 0.00 0.00 79 1008.0
20190120193007 20 314 9.0 15.0 0.00 0.00 0.00 80 1008.0
20190120192504 20 314 8.0 15.0 0.00 0.00 0.00 81 1008.1
20190120192007 20 306 8.0 15.0 0.00 0.00 0.00 82 1007.8
20190120191504 20 302 8.0 15.0 0.00 0.00 0.00 82 1007.8
20190120191008 20 305 8.0 15.0 0.00 0.00 0.00 82 1007.8
20190120190504 20 306 9.0 17.0 0.00 0.00 0.00 82 1007.7
20190120190009 20 305 9.0 17.0 0.00 0.00 0.00 81 1007.5
20190120185504 20 303 9.0 18.0 0.00 0.00 0.00 81 1007.3
20190120185008 20 306 8.0 18.0 0.00 0.00 0.00 81 1007.3
20190120184505 20 292 9.0 17.0 0.00 0.00 0.00 81 1007.3